Satellite-Ground Cal/Val Site Overpasses Predictions

Prediction of Satellite NPP Overpassing Cal/Val Site: Antarctic Dome C

Ground Cal/Val Site Location: Latitude: -75.10, Longitude: 123.35; Satellite-Ground Site NADIR distance within 100 km.

Table of predicted overpasses for the next 14.0 days since TLE Epoch: 7/16/2025
Interval Starting Time Ending Time Minimum Distance Time Minimum Distance (km)
1 07/16/2025 07:39:50 07/16/2025 07:40:18 07/16/2025 07:40:04 32.56
2 07/17/2025 07:21:05 07/17/2025 07:21:23 07/17/2025 07:21:14 77.50
3 07/19/2025 15:03:20 07/19/2025 15:03:43 07/19/2025 15:03:31 61.20
4 07/20/2025 14:44:29 07/20/2025 14:44:55 07/20/2025 14:44:42 47.98
5 07/21/2025 07:46:11 07/21/2025 07:46:32 07/21/2025 07:46:21 67.56
6 07/22/2025 07:27:18 07/22/2025 07:27:45 07/22/2025 07:27:32 40.50
7 07/24/2025 15:09:47 07/24/2025 15:09:51 07/24/2025 15:09:49 98.61
8 07/25/2025 14:50:45 07/25/2025 14:51:14 07/25/2025 14:50:59 12.90
